Showing default

YAM-14, 69008

Orbit data source: Space-Track

YAM-14, 69008 is an American payload satellite in SSO that was launched on Sun, 03 May 2026 UTC via an FALCON 9 launch vehicle from the Air Force Western Test Range (AFWTR). Payload-class satellites include a variety of spacecraft equipped with specific instruments for various scientific and technological missions. These include communications satellites like Starlink; space stations such as the ISS; scientific satellites like the Hubble; Earth observation satellites from companies like Planet Labs, Umbra, and HawkEye 360; GPS; miniature CubeSats for education and research; and military/defense satellites.

Loading next visibility...
Identifier
69008, 2026-100AE
Orbit
SSO
Country
Flag of USUS
Related business
Manufacturer
Airbus/Toulouse
Mission
Operational spacecraft
Bus & Motor
ARROW, Unknown motor
Mass
~150 kg wet, ~140 kg dry
Launch date (UTC)
2026-05-03 (2 months ago)
Launch vehicle
FALCON 9
Launch site
Air Force Western Test Range (AFWTR)
Object type
Payload
Rocket body
Debris
Shape & HBR
Unknown shape, 14.5 m
Radar Cross Section
Large (>1 m²)

Expand to show TLE details & history
Last TLE update: 15 hours ago

TLE from 15 hours ago
0 YAM-14
1 69008U 26100AE  26175.20978716  .00001271  00000-0  13649-3 0  9990
2 69008  97.7348  72.4688 0006798  90.9517 269.2480 14.90290456  7737
Epoch: 2026-06-24T05:02Z
TLE epoch observation values (Epoch: 2026-06-24T05:02:05.610Z)
Latitude
-0.00003°
Longitude
84.57515°
Altitude
600.135 km
Speed
7.56 km/s
True Right ascension
04h 49m 52s
True Declination
0° 00' 00"
Sunlit
Object was in daylight at epoch
Visualization orbit readout
Latitude
Unknown
Longitude
Unknown
Altitude
Unknown
Speed
Unknown
Apparent Right ascension
Unknown
Apparent Declination
Unknown
Sunlit
N/A
Visualization observer readout
Local Sidereal Time
07:35:47
Azimuth
Unknown
Elevation
Unknown
Doppler factor
Unknown
Orbital elements
Apogee altitude
598.789 km
Perigee altitude
589.309 km
Semi-major axis
6,972.186 km
Eccentricity
0.00068
Inclination
97.7348°
RAAN
72.4688°
Arg. of periapsis
90.9517°
True anomaly
269.17011°
Mean anomaly
269.248°
Eccentric anomaly
269.20905°
Mean motion
3.72812 °/min
Orbital period
96.56 mins
BSTAR
0.00013649
Loading maneuver chart data...
Computing Atmospheric mass density...
Loading historical data...
Loading historical data...
Loading historical data...
Loading historical data...
Loading historical data...
Loading historical data...
Loading historical data...

Documentation

Showing up to 5 results
|